Weather History for Hettinger, ND

Change the Weather History Date:

Monday, February 11, 2013

  Actual Average Record
Temperature  
Mean Temperature 25 °F -  
Max Temperature 34 °F 31 °F 55 °F (2005)
Min Temperature 15 °F 9 °F -18 °F (2012)
Degree Days  
Heating Degree Days 40 45  
Month to date heating degree days 396 507  
Since 1 July heating degree days 5284 5583  
Moisture  
Dew Point 13 °F    
Average Humidity 67    
Maximum Humidity 80    
Minimum Humidity 47    
Precipitation  
Precipitation 0.00 in 0.02 in 0.08 in (2008)
Month to date precipitation 0.03 0.21  
Year to date precipitation 0.06 0.52  
Sea Level Pressure  
Sea Level Pressure 30.05 in    
Wind  
Wind Speed 14 mph (WNW)    
Max Wind Speed 25 mph    
Max Gust Speed 32 mph    
Visibility 10 miles    
Events      
T = Trace of Precipitation, MM = Missing Value Source: NWS Daily Summary

Daily Weather History Graph

Daily Weather History Graph

Search for Another Location

Airport:

Trip Planner

Search our weather history database for the weather conditions in past years. The results will help you decide how hot, cold, wet, or windy it might be!

Date:

Astronomy

Feb. 11, 2013 Rise Set
Actual Time 6:58 AM MST 5:11 PM MST
Civil Twilight 6:27 AM MST 5:42 PM MST
Nautical Twilight 5:52 AM MST 6:17 PM MST
Astronomical Twilight 5:18 AM MST 6:52 PM MST
Moon 7:16 AM MST (2/11) 7:20 PM MST (2/11)
Length of Visible Light 11h 14m
Length of Day
10h 12m
Waxing Crescent, 3% of the Moon is Illuminated
Feb 11
Waxing Crescent
Feb 17
First Quarter
Feb 25
Full
Mar 4
Last Quarter
Mar 11
New

Hourly Weather History & Observations

Time (MST) Temp. Windchill Dew Point Humidity Pressure Visibility Wind Dir Wind Speed Gust Speed Precip Events Conditions
12:08 AM 19.4 °F 3.2 °F 12.2 °F 74% 29.97 in 10.0 mi WNW 20.7 mph 31.1 mph N/A   Overcast
12:53 AM 19.0 °F 3.6 °F 12.9 °F 77% 30.08 in 10.0 mi WNW 18.4 mph 28.8 mph N/A   Overcast
1:53 AM 19.0 °F 3.6 °F 12.0 °F 74% 30.09 in 10.0 mi NW 18.4 mph 27.6 mph N/A   Overcast
2:53 AM 19.0 °F 2.0 °F 12.0 °F 74% 30.09 in 10.0 mi NW 23.0 mph 32.2 mph N/A   Overcast
3:53 AM 18.0 °F 1.7 °F 12.0 °F 78% 30.09 in 10.0 mi NW 19.6 mph 31.1 mph N/A   Overcast
4:53 AM 17.1 °F -0.3 °F 12.0 °F 81% 30.11 in 10.0 mi NW 21.9 mph - N/A   Overcast
5:53 AM 17.1 °F 1.5 °F 10.9 °F 77% 30.13 in 10.0 mi WNW 17.3 mph - N/A   Overcast
6:48 AM 15.8 °F -0.6 °F 10.4 °F 79% 30.00 in 10.0 mi WNW 18.4 mph 24.2 mph N/A   Scattered Clouds
6:53 AM 16.0 °F -0.9 °F 10.0 °F 77% 30.13 in 10.0 mi WNW 19.6 mph - N/A   Partly Cloudy
7:53 AM 17.1 °F 2.5 °F 12.0 °F 81% 30.14 in 10.0 mi WNW 15.0 mph - N/A   Mostly Cloudy
8:53 AM 19.0 °F 5.0 °F 12.9 °F 77% 30.13 in 10.0 mi WNW 15.0 mph - N/A   Overcast
9:53 AM 21.9 °F 8.2 °F 12.9 °F 68% 30.12 in 10.0 mi West 16.1 mph - N/A   Partly Cloudy
10:53 AM 25.0 °F 12.2 °F 12.9 °F 60% 30.12 in 10.0 mi WNW 16.1 mph - N/A   Clear
11:53 AM 27.0 °F 14.7 °F 14.0 °F 58% 30.09 in 10.0 mi WNW 16.1 mph - N/A   Clear
12:53 PM 28.9 °F 18.6 °F 15.1 °F 56% 30.06 in 10.0 mi WNW 12.7 mph - N/A   Partly Cloudy
1:53 PM 32.0 °F 22.1 °F 16.0 °F 52% 30.02 in 10.0 mi West 13.8 mph 20.7 mph N/A   Clear
2:53 PM 33.1 °F 23.9 °F 15.1 °F 48% 30.01 in 10.0 mi West 12.7 mph - N/A   Clear
3:53 PM 33.1 °F 24.9 °F 15.1 °F 48% 29.99 in 10.0 mi West 10.4 mph - N/A   Clear
4:53 PM 30.0 °F 21.7 °F 14.0 °F 51% 29.99 in 10.0 mi West 9.2 mph - N/A   Clear
5:53 PM 21.0 °F 14.6 °F 12.0 °F 68% 30.01 in 10.0 mi WSW 4.6 mph - N/A   Clear
6:53 PM 21.0 °F 14.6 °F 12.9 °F 71% 30.01 in 10.0 mi WSW 4.6 mph - N/A   Partly Cloudy
7:53 PM 27.0 °F 18.7 °F 14.0 °F 58% 29.99 in 10.0 mi WSW 8.1 mph - N/A   Overcast
8:53 PM 26.1 °F 16.8 °F 15.1 °F 63% 29.98 in 10.0 mi WSW 9.2 mph - N/A   Scattered Clouds
9:53 PM 27.0 °F 16.7 °F 15.1 °F 61% 29.96 in 10.0 mi West 11.5 mph - N/A   Overcast
10:53 PM 28.0 °F 18.1 °F 15.1 °F 58% 29.94 in 10.0 mi West 11.5 mph - N/A   Overcast
11:53 PM 26.1 °F 15.6 °F 14.0 °F 60% 29.93 in 10.0 mi West 11.5 mph - N/A   Clear